Location: Highland Meadows Observing Site
(48.4428°N, 114.5461°W)
Time: 15:07:42
(UTC-06:00)

Amateur Radio Satellites - All Passes

Search period start: 17 August 2017 14:37
Search period end: 18 August 2017 14:37
Location: Highland Meadows Observing Site, 48.4428°N, 114.5461°W

Satellite Date Start Highest point End Downlink Frequencies (MHz)
Time Altitude Azimuth
ITAMSAT 1 17 Aug 14:40:18 14:43:42 18° 56° (NE) 14:47:05 435.822/435.867
AO-85 17 Aug 14:50:15 14:54:04 34° 42° (NE) 14:58:07 145.980
ESTCUBE 1 17 Aug 15:05:09 15:07:14 13° 304° (NW) 15:09:20 437.505/2401.250
Oscar 19 17 Aug 15:07:13 15:11:47 32° 265° (W) 15:16:24 437.125/150
50 SAT 17 Aug 15:14:25 15:17:47 58° 287° (WNW) 15:21:06 437.505
VELOX 1 17 Aug 15:27:47 15:31:30 27° 296° (WNW) 15:35:11 145.980
UKube-1 17 Aug 15:28:03 15:32:24 75° 104° (ESE) 15:36:42 .
DX 1 17 Aug 15:41:37 15:45:54 55° 289° (WNW) 15:50:08 434.975-435.025
Tancredo 1 17 Aug 15:42:53 15:45:44 48° 10° (N) 15:48:34 437.200
ISS 17 Aug 15:45:53 15:49:04 45° 359° (N) 15:52:14 437.550
BEESAT 3 17 Aug 15:45:55 15:49:55 65° 236° (SW) 15:53:49 437.485
Gurwin Techsat 1B 17 Aug 15:50:05 15:54:09 22° 269° (W) 15:58:16 435.225
BEESAT 2 17 Aug 15:50:30 15:54:32 54° 47° (NE) 15:58:29 435.950
RS-15 17 Aug 15:53:54 16:05:38 46° 334° (NNW) 16:17:15 29.354- 29.394
nSIGHT-1 17 Aug 15:59:20 16:02:30 45° 2° (N) 16:05:38 .
AO-7 17 Aug 15:59:21 16:07:45 89° 58° (ENE) 16:16:11 .
BEESAT 17 Aug 16:04:13 16:08:01 23° 93° (E) 16:11:49 436.000
ITAMSAT 1 17 Aug 16:17:19 16:22:32 83° 255° (WSW) 16:27:47 435.822/435.867
MOZHAYETS 4 17 Aug 16:21:57 16:25:59 29° 95° (E) 16:30:01
AO-85 17 Aug 16:30:33 16:34:31 39° 240° (WSW) 16:38:46 145.980
YUBILEINY 17 Aug 16:33:33 16:41:30 41° 85° (E) 16:49:27 435.215
ITUPSAT 1 17 Aug 16:35:26 16:40:00 43° 99° (E) 16:44:33 437.325
UKube-1 17 Aug 17:05:26 17:07:52 15° 302° (WNW) 17:10:17 .
Tancredo 1 17 Aug 17:18:10 17:21:00 47° 210° (SSW) 17:23:48 437.200
ISS 17 Aug 17:22:31 17:25:48 75° 19° (NNE) 17:29:04 437.550
DOVE 4 17 Aug 17:24:17 17:29:11 39° 68° (ENE) 17:33:59 437.250
BEESAT 2 17 Aug 17:28:57 17:31:56 20° 246° (WSW) 17:34:52 435.950
nSIGHT-1 17 Aug 17:35:50 17:39:05 89° 29° (NNE) 17:42:20 .
BEESAT 17 Aug 17:41:27 17:46:02 48° 292° (WNW) 17:50:36 436.000
KAITUO 1B 17 Aug 17:44:13 17:46:03 13° 61° (ENE) 17:47:55 145.475/437.950
HO-68 17 Aug 17:45:32 17:49:58 18° 46° (NE) 17:54:24 435.675
LilacSat-2 17 Aug 17:51:09 17:54:02 21° 65° (ENE) 17:56:57 437.200
AO-7 17 Aug 17:55:18 18:01:35 23° 270° (W) 18:07:53 .
MOZHAYETS 4 17 Aug 17:58:59 18:03:11 36° 293° (WNW) 18:07:24
CUTE-I 17 Aug 17:59:47 18:04:27 32° 63° (ENE) 18:09:08 437.470
XW-2D 17 Aug 17:59:54 18:03:00 25° 67° (ENE) 18:06:07 145.860 - 145.880
ITAMSAT 1 17 Aug 18:00:40 18:02:48 12° 274° (W) 18:04:57 435.822/435.867
CUBESAT XI-V 17 Aug 18:08:15 18:13:00 70° 102° (ESE) 18:17:41 437.345
XW-2B 17 Aug 18:10:34 18:13:53 30° 68° (ENE) 18:17:14 145.730 - 145.750
RS-15 17 Aug 18:10:43 18:21:56 37° 8° (N) 18:32:47 29.354- 29.394
ITUPSAT 1 17 Aug 18:13:39 18:17:38 27° 297° (WNW) 18:21:37 437.325
NUDT-PHONESAT 17 Aug 18:21:05 18:24:18 30° 68° (ENE) 18:27:33 437.300
XW-2C 17 Aug 18:29:04 18:32:41 49° 72° (ENE) 18:36:21 145.795 - 145.815
YUBILEINY 17 Aug 18:29:31 18:38:05 54° 287° (WNW) 18:46:40 435.215
KKS-1 17 Aug 18:37:05 18:41:30 62° 102° (ESE) 18:45:52 437.445
SEEDS 17 Aug 18:38:40 18:39:18 10° 56° (NE) 18:39:57 437.485
XW-2F 17 Aug 18:44:16 18:47:58 70° 74° (ENE) 18:51:44 145.980 - 146.000
CUBEBUG 2 17 Aug 18:50:45 18:52:16 12° 58° (ENE) 18:53:47 437.445
ISS 17 Aug 18:59:17 19:02:04 26° 217° (SW) 19:04:50 437.550
DOVE 4 17 Aug 19:02:05 19:06:53 34° 265° (W) 19:11:37 437.250
nSIGHT-1 17 Aug 19:12:42 19:15:08 20° 220° (SW) 19:17:34 .
CUTE 1.7 + AOD 2 17 Aug 19:15:30 19:19:18 33° 67° (ENE) 19:23:08 437.475
KAITUO 1B 17 Aug 19:15:55 19:19:35 61° 259° (W) 19:23:18 145.475/437.950
LilacSat-2 17 Aug 19:24:38 19:28:07 35° 263° (W) 19:31:40 437.200
STARS 17 Aug 19:26:13 19:30:37 84° 105° (ESE) 19:34:58 437.465
HO-68 17 Aug 19:29:24 19:36:28 67° 67° (ENE) 19:43:34 435.675
AAUSAT CUBESAT 2 17 Aug 19:33:03 19:35:46 17° 61° (ENE) 19:38:29 437.432
XW-2D 17 Aug 19:33:48 19:37:05 29° 264° (W) 19:40:26 145.860 - 145.880
CUTE-I 17 Aug 19:39:15 19:44:21 44° 261° (W) 19:49:29 437.470
ZACube-1 17 Aug 19:39:22 19:41:00 12° 58° (ENE) 19:42:38 437.345
XW-2B 17 Aug 19:45:03 19:48:06 23° 266° (W) 19:51:11 145.730 - 145.750
CUBESAT XI-V 17 Aug 19:46:43 19:49:50 18° 301° (WNW) 19:52:58 437.345
NUDT-PHONESAT 17 Aug 19:55:16 19:58:13 23° 266° (W) 20:01:12 437.300
AO-73 17 Aug 20:01:32 20:04:17 18° 62° (ENE) 20:07:02 145.935
O/OREOS (USA 219) 17 Aug 20:04:03 20:08:15 36° 55° (NE) 20:12:27 437.305
XW-2C 17 Aug 20:05:00 20:07:10 15° 270° (W) 20:09:21 145.795 - 145.815
SEEDS 17 Aug 20:10:01 20:14:13 76° 74° (ENE) 20:18:27 437.485
KKS-1 17 Aug 20:14:37 20:17:37 18° 300° (WNW) 20:20:37 437.445
XW-2A 17 Aug 20:20:14 20:23:34 88° 69° (ENE) 20:26:55 145.665 - 145.685
XW-2F 17 Aug 20:21:48 20:22:35 11° 272° (W) 20:23:22 145.980 - 146.000
CUBEBUG 2 17 Aug 20:23:57 20:28:15 88° 85° (E) 20:32:29 437.445
UWE-3 17 Aug 20:24:33 20:28:41 54° 72° (ENE) 20:32:44 435.000/436.395/437.385
RS-15 17 Aug 20:25:13 20:37:22 62° 40° (NE) 20:48:54 29.354- 29.394
STRAND 1 17 Aug 20:27:21 20:31:49 29° 95° (E) 20:36:14 437.568
YUBILEINY 17 Aug 20:33:07 20:37:23 14° 314° (NW) 20:41:40 435.215
Oscar 11 17 Aug 20:49:28 20:53:27 39° 69° (ENE) 20:57:30 .
CUTE 1.7 + AOD 2 17 Aug 20:51:32 20:55:09 27° 266° (W) 20:58:49 437.475
STARS 17 Aug 21:04:09 21:06:20 14° 303° (WNW) 21:08:32 437.465
AAUSAT CUBESAT 2 17 Aug 21:06:42 21:10:48 58° 259° (W) 21:14:57 437.432
DELFI C3 17 Aug 21:11:53 21:14:37 18° 62° (ENE) 21:17:22 145.870
ZACube-1 17 Aug 21:12:30 21:16:41 85° 261° (W) 21:20:50 437.345
EO-88 17 Aug 21:14:35 21:15:24 11° 59° (ENE) 21:16:14 145.990 - 145.960
HO-68 17 Aug 21:18:45 21:24:44 28° 267° (W) 21:30:46 435.675
AO-73 17 Aug 21:36:05 21:40:09 54° 259° (W) 21:44:13 145.935
Max Valier Satellite 17 Aug 21:43:36 21:46:39 26° 67° (ENE) 21:49:44 145.860
O/OREOS (USA 219) 17 Aug 21:43:37 21:47:34 30° 254° (WSW) 21:51:33 437.305
FO-29 17 Aug 21:43:54 21:46:59 15° 84° (E) 21:49:56 435.910
SEEDS 17 Aug 21:48:46 21:50:26 12° 273° (W) 21:52:07 437.485
UWE-3 17 Aug 22:02:47 22:05:27 16° 269° (W) 22:08:08 435.000/436.395/437.385
CUBEBUG 2 17 Aug 22:04:56 22:05:29 10° 273° (W) 22:06:02 437.445
STRAND 1 17 Aug 22:06:20 22:11:08 42° 293° (WNW) 22:15:54 437.568
Oscar 11 17 Aug 22:26:15 22:29:44 24° 267° (W) 22:33:15 .
RS-15 17 Aug 22:38:18 22:49:47 53° 247° (WSW) 23:00:41 29.354- 29.394
EO-88 17 Aug 22:44:52 22:48:29 79° 256° (WSW) 22:52:10 145.990 - 145.960
DELFI C3 17 Aug 22:45:08 22:49:02 50° 261° (W) 22:52:57 145.870
PRISM 17 Aug 22:50:31 22:53:03 16° 91° (E) 22:55:33 437.425
LO-87 17 Aug 22:54:07 22:56:46 20° 65° (ENE) 22:59:24 145.935 - 145.965
ESTCUBE 1 17 Aug 22:54:26 22:57:32 19° 60° (ENE) 23:00:39 437.505/2401.250
UNISAT 6 17 Aug 23:14:40 23:18:43 39° 98° (E) 23:22:47 437.425
Max Valier Satellite 17 Aug 23:17:20 23:20:26 26° 265° (W) 23:23:35 145.860
FO-29 17 Aug 23:27:11 23:33:08 87° 286° (WNW) 23:38:29 435.910
TIGRISAT 17 Aug 23:50:41 23:54:58 84° 103° (ESE) 23:59:18 435.000
SPROUT 17 Aug 23:51:33 23:54:23 18° 61° (ENE) 23:57:13 437.525
M-CUBED/EXP-1 PRIME 18 Aug 00:08:13 00:10:29 14° 92° (E) 00:12:42 437.505
PRISM 18 Aug 00:24:36 00:28:41 57° 289° (WNW) 00:32:42 437.425
LO-87 18 Aug 00:26:39 00:29:59 35° 262° (W) 00:33:19 145.935 - 145.965
ESTCUBE 1 18 Aug 00:29:26 00:33:54 62° 259° (W) 00:38:24 437.505/2401.250
PCSat 18 Aug 00:30:33 00:35:48 54° 118° (ESE) 00:41:07 145.827
NANOSAT C BR1 18 Aug 00:32:42 00:35:00 14° 89° (E) 00:37:17 145.865
POLYITAN 1 18 Aug 00:33:44 00:36:24 16° 90° (E) 00:39:03 437.675
QB50P2 18 Aug 00:48:01 00:51:30 24° 94° (E) 00:54:58 145.880/145.840
EO-79 18 Aug 00:50:03 00:53:28 23° 94° (E) 00:56:51 145.935-145.965
VELOX 1 18 Aug 00:51:24 00:55:45 54° 71° (ENE) 01:00:06 145.980
UNISAT 6 18 Aug 00:51:47 00:55:15 24° 296° (WNW) 00:58:44 437.425
UKube-1 18 Aug 00:52:20 00:54:35 14° 57° (ENE) 00:56:50 .
RS-15 18 Aug 00:55:35 00:58:59 12° 271° (W) 01:02:21 29.354- 29.394
AIST 2D 18 Aug 00:58:34 01:02:07 70° 102° (ESE) 01:05:39 435.315
DX 1 18 Aug 01:05:07 01:08:43 25° 64° (ENE) 01:12:21 434.975-435.025
FO-29 18 Aug 01:13:39 01:17:17 17° 309° (NW) 01:20:42 435.910
SO-50 18 Aug 01:17:54 01:22:22 62° 124° (SE) 01:26:50 436.795
DUCHIFAT 1 18 Aug 01:23:58 01:27:56 41° 98° (E) 01:31:53 145.980
SPROUT 18 Aug 01:25:40 01:29:53 59° 259° (W) 01:34:06 437.525
TIGRISAT 18 Aug 01:29:07 01:31:04 13° 302° (WNW) 01:33:02 435.000
BUGSAT 1 18 Aug 01:38:45 01:41:28 17° 92° (E) 01:44:10 437.445
M-CUBED/EXP-1 PRIME 18 Aug 01:40:56 01:45:30 77° 292° (WNW) 01:49:44 437.505
50 SAT 18 Aug 01:48:25 01:51:50 86° 79° (E) 01:55:17 437.505
NANOSAT C BR1 18 Aug 02:06:59 02:11:08 63° 287° (WNW) 02:15:16 145.865
POLYITAN 1 18 Aug 02:08:24 02:12:32 56° 288° (WNW) 02:16:38 437.675
ITUPSAT 1 18 Aug 02:11:15 02:13:16 13° 54° (NE) 02:15:16 437.325
PCSat 18 Aug 02:14:34 02:19:28 33° 318° (NW) 02:24:24 145.827
Gurwin Techsat 1B 18 Aug 02:21:58 02:25:27 17° 89° (E) 02:28:56 435.225
QB50P2 18 Aug 02:23:31 02:27:23 36° 292° (WNW) 02:31:15 145.880/145.840
EO-79 18 Aug 02:25:27 02:29:20 38° 291° (WNW) 02:33:13 145.935-145.965
UKube-1 18 Aug 02:25:40 02:30:00 81° 255° (WSW) 02:34:23 .
VELOX 1 18 Aug 02:29:22 02:32:31 19° 269° (W) 02:35:41 145.980
AIST 2D 18 Aug 02:33:43 02:34:47 11° 300° (WNW) 02:35:52 435.315
YUBILEINY 18 Aug 02:38:27 02:45:23 25° 58° (ENE) 02:52:15 435.215
DX 1 18 Aug 02:40:36 02:44:44 39° 262° (W) 02:48:53 434.975-435.025
SO-50 18 Aug 02:59:21 03:03:10 26° 325° (NW) 03:07:01 436.795
DUCHIFAT 1 18 Aug 03:00:07 03:03:23 22° 296° (WNW) 03:06:38 145.980
BUGSAT 1 18 Aug 03:13:14 03:17:06 47° 290° (WNW) 03:20:57 437.445
BEESAT 18 Aug 03:13:51 03:18:17 41° 67° (ENE) 03:22:45 436.000
Oscar 19 18 Aug 03:13:58 03:19:11 68° 102° (ESE) 03:24:22 437.125/150
M-CUBED/EXP-1 PRIME 18 Aug 03:16:59 03:19:05 13° 311° (NW) 03:21:07 437.505
MOZHAYETS 4 18 Aug 03:27:09 03:31:27 42° 69° (ENE) 03:35:46
CUBESAT XI-V 18 Aug 03:40:03 03:42:45 15° 58° (ENE) 03:45:29 437.345
ITUPSAT 1 18 Aug 03:45:33 03:50:18 77° 72° (ENE) 03:55:05 437.325
AO-7 18 Aug 03:57:40 04:04:01 23° 90° (E) 04:10:18 .
Gurwin Techsat 1B 18 Aug 04:00:39 04:06:00 75° 288° (WNW) 04:11:18 435.225
PCSat 18 Aug 04:02:07 04:04:37 13° 343° (NNW) 04:07:06 145.827
KKS-1 18 Aug 04:04:48 04:06:56 13° 56° (NE) 04:09:03 437.445
NO-84 18 Aug 04:05:22 04:08:10 55° 144° (SE) 04:10:59 435.350 FM
ITAMSAT 1 18 Aug 04:26:47 04:31:06 26° 93° (E) 04:35:22 435.822/435.867
YUBILEINY 18 Aug 04:34:40 04:43:26 87° 264° (W) 04:52:08 435.215
SO-50 18 Aug 04:43:40 04:45:10 11° 349° (N) 04:46:40 436.795
STARS 18 Aug 04:51:52 04:54:35 16° 59° (ENE) 04:57:18 437.465
BEESAT 18 Aug 04:52:10 04:56:11 27° 266° (W) 05:00:14 436.000
Oscar 19 18 Aug 04:54:13 04:58:01 21° 302° (WNW) 05:01:50 437.125/150
MOZHAYETS 4 18 Aug 05:05:04 05:08:46 24° 267° (W) 05:12:30
CUBESAT XI-V 18 Aug 05:14:51 05:19:31 81° 257° (WSW) 05:24:14 437.345
ITUPSAT 1 18 Aug 05:26:07 05:28:42 14° 271° (W) 05:31:18 437.325
KKS-1 18 Aug 05:38:19 05:42:49 90° 54° (NE) 05:47:19 437.445
Gurwin Techsat 1B 18 Aug 05:42:22 05:45:04 14° 307° (NW) 05:47:47 435.225
NO-84 18 Aug 05:43:07 05:45:41 29° 344° (NNW) 05:48:18 435.350 FM
PCSat 18 Aug 05:48:55 05:50:35 11° 10° (N) 05:52:15 145.827
AO-7 18 Aug 05:49:26 05:57:50 88° 289° (WNW) 06:06:09 .
ITAMSAT 1 18 Aug 06:05:49 06:10:48 49° 292° (WNW) 06:15:46 435.822/435.867
STRAND 1 18 Aug 06:12:02 06:13:30 11° 51° (NE) 06:14:59 437.568
SO-50 18 Aug 06:25:49 06:27:39 12° 14° (NNE) 06:29:29 436.795
STARS 18 Aug 06:26:02 06:30:25 70° 257° (WSW) 06:34:50 437.465
YUBILEINY 18 Aug 06:32:59 06:38:57 21° 285° (WNW) 06:44:54 435.215
KAITUO 1B 18 Aug 06:45:37 06:46:20 10° 87° (E) 06:47:03 145.475/437.950
AO-85 18 Aug 06:49:08 06:52:14 23° 116° (ESE) 06:55:22 145.980
LilacSat-2 18 Aug 06:54:19 06:57:06 19° 92° (E) 06:59:52 437.200
CUBESAT XI-V 18 Aug 06:56:57 06:57:40 10° 275° (W) 06:58:23 437.345
DOVE 4 18 Aug 06:56:59 07:01:39 56° 100° (E) 07:06:00 437.250
XW-2D 18 Aug 07:02:21 07:05:23 22° 93° (E) 07:08:23 145.860 - 145.880
XW-2B 18 Aug 07:13:06 07:16:24 27° 95° (E) 07:19:42 145.730 - 145.750
BEESAT 3 18 Aug 07:15:32 07:19:30 62° 124° (ESE) 07:23:31 437.485
KKS-1 18 Aug 07:18:41 07:20:01 11° 273° (W) 07:21:21 437.445
NUDT-PHONESAT 18 Aug 07:21:09 07:24:17 25° 95° (E) 07:27:23 437.300
NO-84 18 Aug 07:21:17 07:23:41 23° 6° (N) 07:26:10 435.350 FM
BEESAT 2 18 Aug 07:22:40 07:26:04 27° 117° (ESE) 07:29:30 435.950
PCSat 18 Aug 07:31:38 07:36:03 24° 35° (NE) 07:40:26 145.827
XW-2C 18 Aug 07:31:44 07:35:26 44° 99° (E) 07:39:07 145.795 - 145.815
AO-7 18 Aug 07:43:04 07:49:37 27° 313° (NW) 07:56:10 .
XW-2F 18 Aug 07:46:28 07:50:16 61° 101° (E) 07:54:04 145.980 - 146.000
STRAND 1 18 Aug 07:46:40 07:51:41 61° 71° (ENE) 07:56:45 437.568
CUTE-I 18 Aug 07:52:01 07:57:16 56° 100° (E) 08:02:28 437.470
SEEDS 18 Aug 07:53:04 07:53:24 10° 86° (E) 07:53:44 437.485
FO-29 18 Aug 07:59:58 08:04:21 17° 51° (NE) 08:08:29 435.910
SO-50 18 Aug 08:05:29 08:09:31 30° 38° (NE) 08:13:35 436.795
CUBEBUG 2 18 Aug 08:12:07 08:14:13 13° 89° (E) 08:16:19 437.445
KAITUO 1B 18 Aug 08:17:01 08:20:49 74° 285° (WNW) 08:24:36 145.475/437.950
LilacSat-2 18 Aug 08:27:54 08:31:33 41° 290° (WNW) 08:35:12 437.200
AO-85 18 Aug 08:28:38 08:32:23 43° 315° (NW) 08:36:11 145.980
CUTE 1.7 + AOD 2 18 Aug 08:31:46 08:35:49 39° 97° (E) 08:39:50 437.475
DOVE 4 18 Aug 08:35:27 08:38:54 20° 300° (WNW) 08:42:12 437.250
XW-2D 18 Aug 08:36:09 08:39:39 34° 291° (WNW) 08:43:08 145.860 - 145.880
HO-68 18 Aug 08:40:28 08:47:24 50° 100° (E) 08:54:18 435.675
AAUSAT CUBESAT 2 18 Aug 08:45:45 08:48:34 17° 90° (E) 08:51:22 437.432
XW-2B 18 Aug 08:47:15 08:50:33 28° 293° (WNW) 08:53:51 145.730 - 145.750
BEESAT 3 18 Aug 08:54:10 08:57:25 23° 324° (NW) 09:00:41 437.485
NUDT-PHONESAT 18 Aug 08:54:54 08:58:09 29° 292° (WNW) 09:01:25 437.300
ZACube-1 18 Aug 08:57:59 09:00:16 14° 89° (E) 09:02:34 437.345
NO-84 18 Aug 08:58:34 09:01:31 54° 26° (NNE) 09:04:39 435.350 FM
BEESAT 2 18 Aug 08:59:50 09:03:40 41° 316° (NW) 09:07:34 435.950
XW-2C 18 Aug 09:06:39 09:09:20 18° 296° (WNW) 09:12:01 145.795 - 145.815
XW-2A 18 Aug 09:10:45 09:14:05 53° 100° (E) 09:17:25 145.665 - 145.685
PCSat 18 Aug 09:14:40 09:20:08 85° 236° (SW) 09:25:33 145.827
TIGRISAT 18 Aug 09:18:25 09:20:52 15° 59° (ENE) 09:23:18 435.000
AO-73 18 Aug 09:20:18 09:23:34 21° 93° (E) 09:26:51 145.935
XW-2F 18 Aug 09:21:54 09:23:57 14° 299° (WNW) 09:26:00 145.980 - 146.000
SEEDS 18 Aug 09:25:26 09:29:44 89° 106° (ESE) 09:33:59 437.485
STRAND 1 18 Aug 09:27:33 09:31:17 20° 269° (W) 09:35:04 437.568
CUTE-I 18 Aug 09:32:40 09:36:59 26° 300° (WNW) 09:41:17 437.470
FO-29 18 Aug 09:40:50 09:48:21 67° 70° (ENE) 09:55:12 435.910
PRISM 18 Aug 09:43:02 09:46:04 20° 62° (ENE) 09:49:07 437.425
SO-50 18 Aug 09:45:47 09:50:12 51° 237° (WSW) 09:54:39 436.795
UWE-3 18 Aug 09:46:09 09:50:21 73° 102° (ESE) 09:54:38 435.000/436.395/437.385
CUBEBUG 2 18 Aug 09:47:09 09:51:18 66° 286° (WNW) 09:55:29 437.445
CUTE 1.7 + AOD 2 18 Aug 10:07:58 10:11:28 25° 295° (WNW) 10:14:57 437.475
Oscar 11 18 Aug 10:08:28 10:12:41 48° 99° (E) 10:16:54 .
AO-85 18 Aug 10:12:14 10:13:49 12° 338° (NNW) 10:15:24 145.980
UNISAT 6 18 Aug 10:16:49 10:21:03 54° 72° (ENE) 10:25:15 437.425
DELFI C3 18 Aug 10:19:10 10:21:41 16° 90° (E) 10:24:12 145.870
AAUSAT CUBESAT 2 18 Aug 10:20:14 10:24:20 52° 289° (WNW) 10:28:23 437.432
O/OREOS (USA 219) 18 Aug 10:21:20 10:24:27 19° 101° (ESE) 10:27:35 437.305
HO-68 18 Aug 10:28:28 10:35:01 41° 300° (WNW) 10:41:34 435.675
ZACube-1 18 Aug 10:32:46 10:36:58 66° 287° (WNW) 10:41:15 437.345
NO-84 18 Aug 10:36:09 10:38:45 24° 223° (SW) 10:41:30 435.350 FM
BEESAT 2 18 Aug 10:40:48 10:42:29 12° 338° (NNW) 10:44:10 435.950
Max Valier Satellite 18 Aug 10:43:15 10:46:07 21° 93° (E) 10:48:58 145.860
XW-2A 18 Aug 10:44:53 10:46:25 13° 298° (WNW) 10:47:56 145.665 - 145.685
TIGRISAT 18 Aug 10:52:43 10:57:04 72° 258° (WSW) 11:01:21 435.000
M-CUBED/EXP-1 PRIME 18 Aug 10:55:33 10:59:35 32° 60° (ENE) 11:03:43 437.505
AO-73 18 Aug 10:55:58 10:59:59 43° 290° (WNW) 11:04:04 145.935
RS-15 18 Aug 10:57:02 11:05:18 22° 97° (E) 11:13:35 29.354- 29.394
PCSat 18 Aug 10:59:46 11:02:43 15° 256° (WSW) 11:05:37 145.827
SEEDS 18 Aug 11:03:00 11:04:45 12° 302° (WNW) 11:06:29 437.485
PRISM 18 Aug 11:16:59 11:21:01 48° 260° (W) 11:25:05 437.425
Tancredo 1 18 Aug 11:22:20 11:24:43 23° 143° (SE) 11:27:07 437.200
UWE-3 18 Aug 11:24:04 11:26:18 14° 300° (WNW) 11:28:34 435.000/436.395/437.385
FO-29 18 Aug 11:27:16 11:33:45 30° 267° (W) 11:39:48 435.910
NANOSAT C BR1 18 Aug 11:28:08 11:31:01 18° 62° (ENE) 11:33:55 145.865
POLYITAN 1 18 Aug 11:29:41 11:32:48 21° 63° (ENE) 11:35:56 437.675
AIST 2D 18 Aug 11:36:10 11:39:28 42° 71° (ENE) 11:42:48 435.315
ISS 18 Aug 11:42:30 11:44:08 13° 136° (SE) 11:45:46 437.550
EO-88 18 Aug 11:43:18 11:46:59 81° 103° (ESE) 11:50:40 145.990 - 145.960
QB50P2 18 Aug 11:43:57 11:47:37 30° 66° (ENE) 11:51:18 145.880/145.840
Oscar 11 18 Aug 11:45:14 11:48:32 21° 297° (WNW) 11:51:49 .
EO-79 18 Aug 11:45:47 11:49:24 29° 66° (ENE) 11:53:02 145.935-145.965
LO-87 18 Aug 11:50:44 11:52:35 14° 90° (E) 11:54:25 145.935 - 145.965
DELFI C3 18 Aug 11:52:53 11:56:47 51° 288° (WNW) 12:00:37 145.870
nSIGHT-1 18 Aug 11:54:00 11:56:12 17° 138° (SE) 11:58:24 .
UNISAT 6 18 Aug 11:55:13 11:58:06 17° 269° (W) 12:00:59 437.425
O/OREOS (USA 219) 18 Aug 11:59:04 12:03:27 55° 300° (WNW) 12:07:53 437.305
Max Valier Satellite 18 Aug 12:16:41 12:20:02 33° 291° (WNW) 12:23:22 145.860
ESTCUBE 1 18 Aug 12:18:34 12:22:05 22° 92° (E) 12:25:35 437.505/2401.250
DUCHIFAT 1 18 Aug 12:18:55 12:22:56 49° 71° (ENE) 12:26:59 145.980
HO-68 18 Aug 12:19:08 12:20:53 11° 323° (NW) 12:22:38 435.675
M-CUBED/EXP-1 PRIME 18 Aug 12:29:44 12:33:53 36° 258° (WSW) 12:38:12 437.505
BUGSAT 1 18 Aug 12:31:48 12:34:55 21° 64° (ENE) 12:38:01 437.445
Tancredo 1 18 Aug 12:56:48 12:59:43 73° 340° (NNW) 13:02:39 437.200
Oscar 19 18 Aug 12:56:49 13:00:50 24° 60° (ENE) 13:04:53 437.125/150
NANOSAT C BR1 18 Aug 13:02:15 13:06:22 53° 260° (W) 13:10:29 145.865
RS-15 18 Aug 13:03:26 13:15:37 73° 121° (ESE) 13:27:51 29.354- 29.394
POLYITAN 1 18 Aug 13:04:16 13:08:19 46° 261° (W) 13:12:23 437.675
SPROUT 18 Aug 13:08:14 13:11:09 18° 91° (E) 13:14:03 437.525
AIST 2D 18 Aug 13:10:54 13:12:54 15° 270° (W) 13:14:55 435.315
AO-7 18 Aug 13:13:00 13:17:21 15° 34° (NE) 13:21:42 .
ISS 18 Aug 13:16:51 13:20:06 66° 153° (SSE) 13:23:22 437.550
EO-88 18 Aug 13:19:17 13:20:05 11° 301° (WNW) 13:20:52 145.990 - 145.960
QB50P2 18 Aug 13:19:39 13:23:22 30° 264° (W) 13:27:07 145.880/145.840
EO-79 18 Aug 13:21:21 13:25:06 31° 264° (W) 13:28:54 145.935-145.965
LO-87 18 Aug 13:22:52 13:26:18 47° 288° (WNW) 13:29:41 145.935 - 145.965
nSIGHT-1 18 Aug 13:28:54 13:32:11 81° 153° (SSE) 13:35:27 .
AO-85 18 Aug 13:35:39 13:38:17 16° 29° (NNE) 13:41:01 145.980
O/OREOS (USA 219) 18 Aug 13:42:47 13:43:55 11° 322° (NW) 13:45:04 437.305
Gurwin Techsat 1B 18 Aug 13:46:11 13:51:07 40° 66° (ENE) 13:56:03 435.225
BEESAT 3 18 Aug 13:51:49 13:55:01 22° 35° (NE) 13:58:10 437.485
ESTCUBE 1 18 Aug 13:54:44 13:59:07 47° 290° (WNW) 14:03:28 437.505/2401.250
DUCHIFAT 1 18 Aug 13:55:58 13:58:53 18° 269° (W) 14:01:48 145.980
BEESAT 2 18 Aug 13:59:20 14:01:38 14° 26° (NNE) 14:03:55 435.950
BUGSAT 1 18 Aug 14:06:09 14:10:03 42° 261° (W) 14:13:56 437.445
UKube-1 18 Aug 14:10:34 14:12:31 13° 89° (E) 14:14:26 .
ITAMSAT 1 18 Aug 14:13:30 14:14:47 11° 50° (NE) 14:16:06 435.822/435.867
VELOX 1 18 Aug 14:13:45 14:18:10 64° 102° (ESE) 14:22:33 145.980
DX 1 18 Aug 14:24:58 14:28:39 26° 95° (E) 14:32:18 434.975-435.025
